TimeEDT,TemperatureF,Dew PointF,Humidity,Sea Level PressureIn,VisibilityMPH,Wind Direction,Wind SpeedMPH,Gust SpeedMPH,PrecipitationIn,Events,Conditions,WindDirDegrees,DateUTC
12:54 AM,45.0,41.0,86,29.98,10.0,South,9.2,-,N/A,,Mostly Cloudy,180,2013-04-10 04:54:00
1:54 AM,46.9,41.0,80,29.98,10.0,South,4.6,-,N/A,,Mostly Cloudy,170,2013-04-10 05:54:00
2:54 AM,46.9,41.0,80,30.00,10.0,Calm,Calm,-,N/A,,Overcast,0,2013-04-10 06:54:00
3:54 AM,46.9,41.0,80,30.00,9.0,Calm,Calm,-,0.04,Rain,Light Rain,0,2013-04-10 07:54:00
4:54 AM,45.0,42.1,90,29.95,10.0,East,3.5,-,0.01,,Overcast,100,2013-04-10 08:54:00
5:54 AM,45.0,42.1,90,29.93,10.0,ENE,4.6,-,N/A,,Overcast,60,2013-04-10 09:54:00
6:54 AM,45.0,42.1,90,29.94,10.0,NNE,3.5,-,N/A,,Overcast,30,2013-04-10 10:54:00
7:54 AM,46.0,43.0,89,29.96,10.0,Calm,Calm,-,N/A,,Overcast,0,2013-04-10 11:54:00
8:54 AM,46.9,42.1,83,29.96,10.0,Calm,Calm,-,N/A,,Overcast,0,2013-04-10 12:54:00
9:54 AM,48.0,43.0,83,29.98,10.0,ENE,8.1,-,N/A,,Overcast,60,2013-04-10 13:54:00
10:54 AM,50.0,43.0,77,29.97,10.0,East,9.2,-,N/A,,Scattered Clouds,80,2013-04-10 14:54:00
11:54 AM,48.9,43.0,80,29.99,10.0,East,9.2,-,N/A,,Overcast,80,2013-04-10 15:54:00
12:54 PM,48.9,42.1,77,29.99,10.0,SE,9.2,-,N/A,,Overcast,130,2013-04-10 16:54:00
1:54 PM,50.0,42.1,74,29.97,10.0,SE,9.2,-,N/A,,Scattered Clouds,130,2013-04-10 17:54:00
2:54 PM,52.0,43.0,71,29.96,10.0,East,8.1,-,N/A,,Mostly Cloudy,100,2013-04-10 18:54:00
3:54 PM,48.9,42.1,77,29.91,10.0,East,16.1,-,N/A,,Mostly Cloudy,90,2013-04-10 19:54:00
4:54 PM,48.9,42.1,77,29.92,10.0,East,9.2,-,N/A,,Mostly Cloudy,80,2013-04-10 20:54:00
5:54 PM,48.9,41.0,74,29.92,10.0,ESE,11.5,-,N/A,,Mostly Cloudy,110,2013-04-10 21:54:00
6:54 PM,50.0,42.1,74,29.90,10.0,SE,8.1,-,N/A,,Overcast,130,2013-04-10 22:54:00
7:54 PM,46.9,43.0,86,29.90,10.0,ENE,8.1,-,0.01,Rain,Light Rain,60,2013-04-10 23:54:00
8:54 PM,48.0,44.1,86,29.93,3.0,Calm,Calm,-,0.11,Rain,Rain,0,2013-04-11 00:54:00
9:22 PM,46.4,44.6,93,29.92,10.0,Calm,Calm,-,0.00,,Overcast,0,2013-04-11 01:22:00
9:54 PM,48.0,45.0,89,29.90,10.0,East,5.8,-,0.00,,Overcast,100,2013-04-11 01:54:00
10:54 PM,46.9,45.0,93,29.88,10.0,ESE,8.1,-,0.00,,Overcast,120,2013-04-11 02:54:00
11:54 PM,48.0,45.0,89,29.91,10.0,South,5.8,-,0.00,Rain,Light Rain,180,2013-04-11 03:54:00